OSCAR 7 (AO-7)

Last updated on Thu Mar 05 2026 00:03:21 GMT+0000 (Coordinated Universal Time)

1 07530U 74089B 26063.54068365 -.00000047 00000+0 -13182-5 0 9999 2 07530 101.9969 75.6751 0012018 332.1518 146.3053 12.53696283347403
UTC large
Height (km)
Speed (km/s)
/
Latitude / Longitude
Inclination (degrees)
Orbital Period (minutes)
Azimuth
Elevation
Range (km)
Doppler Factor

Next 0 passes for location: London (51.5072 / 0.1276)

Sorry there are no passes over London.